St. David's, Bermuda

1:49 PM AST on November 24, 2017 (GMT -0400)
Bermuda International

Weather History for TXKF - March, 2013

Change the Weather History Date:

Saturday, March 9, 2013

  Actual Average Record
Temperature  
Mean Temperature 59 °F -  
Max Temperature 64 °F 67 °F 71 °F (1998)
Min Temperature 54 °F 59 °F 39 °F (2004)
Degree Days  
Heating Degree Days 6    
Growing Degree Days 9 (Base 50)    
Moisture  
Dew Point 53 °F    
Average Humidity 74    
Maximum Humidity 88    
Minimum Humidity 58    
Precipitation  
Precipitation 0.16 in - - ()
Sea Level Pressure  
Sea Level Pressure 29.52 in    
Wind  
Wind Speed 29 mph ()    
Max Wind Speed 39 mph    
Max Gust Speed 53 mph    
Visibility 6.7 miles    
Events Rain    
Averages and records for this station are not official NWS values.
T = Trace of Precipitation, MM = Missing Value Source: Averaged Metar Reports

Daily Weather History Graph

Daily Weather History Graph

Search for Another Location

Airport or City:

Trip Planner

Search our weather history database for the weather conditions in past years. The results will help you decide how hot, cold, wet, or windy it might be!

Date:

Astronomy

Mar. 09, 2013 Rise Set
Actual Time 6:36 AM AST 6:22 PM AST
Civil Twilight 6:11 AM AST 6:47 PM AST
Nautical Twilight 5:43 AM AST 7:15 PM AST
Astronomical Twilight 5:14 AM AST 7:43 PM AST
Moon 4:51 AM AST (3/9) 4:24 PM AST (3/9)
Length of Visible Light 12h 35m
Length of Day
11h 46m
Waning Crescent, 6% of the Moon is Illuminated
Mar 9
Waning Crescent
Mar 11
New
Mar 19
First Quarter
Mar 27
Full
Apr 3
Last Quarter

Hourly Weather History & Observations

Time (AST) Temp. Dew Point Humidity Pressure Visibility Wind Dir Wind Speed Gust Speed Precip Events Conditions
12:55 AM 55.4 °F 41.0 °F 58% 29.56 in 6.2 mi West 31.1 mph 46.0 mph N/A   Mostly Cloudy
1:55 AM 53.6 °F 44.6 °F 72% 29.56 in 6.2 mi West 29.9 mph 44.9 mph N/A Rain Light Rain Showers
2:00 AM 54 °F 44 °F 60% 29.57 in 9 mi West 32.2 mph - - Rain Light Rain Showers
2:55 AM 55.4 °F 44.6 °F 67% 29.50 in 6.2 mi West 35.7 mph - N/A   Mostly Cloudy
3:55 AM 55.4 °F 48.2 °F 77% 29.47 in 5.6 mi West 32.2 mph 44.9 mph N/A Rain Light Rain Showers
4:55 AM 57.2 °F 50.0 °F 77% 29.47 in 6.2 mi West 36.8 mph - N/A Rain Light Rain Showers
5:00 AM 58 °F 49 °F 64% 29.47 in 9 mi WSW 35.7 mph - - Rain Light Rain Showers
5:22 AM 57.2 °F 50.0 °F 77% 29.44 in 6.2 mi WSW 33.4 mph 47.2 mph N/A Rain Light Rain Showers
5:55 AM 57.2 °F 51.8 °F 82% 29.44 in 5.6 mi West 38.0 mph 49.5 mph N/A Rain Light Rain Showers
6:55 AM 59.0 °F 53.6 °F 82% 29.44 in 6.2 mi West 39.1 mph 52.9 mph N/A Rain Light Rain Showers
7:55 AM 60.8 °F 55.4 °F 82% 29.47 in 6.2 mi West 29.9 mph 43.7 mph N/A Rain Light Rain Showers
8:00 AM 60 °F 55 °F 78% 29.48 in 9 mi West 33.4 mph - - Rain Light Rain Showers
8:55 AM 62.6 °F 53.6 °F 72% 29.47 in 6.2 mi WNW 33.4 mph 47.2 mph N/A   Mostly Cloudy
9:12 AM 62.6 °F 53.6 °F 72% 29.50 in 6.2 mi WNW 28.8 mph 41.4 mph N/A Rain Rain Showers
9:21 AM 59.0 °F 53.6 °F 82% 29.50 in 6.2 mi WNW 31.1 mph 52.9 mph N/A   Mostly Cloudy
9:46 AM 59.0 °F 53.6 °F 82% 29.50 in 6.2 mi WNW 32.2 mph 43.7 mph N/A Rain Rain Showers
9:55 AM 60.8 °F 51.8 °F 72% 29.50 in 6.2 mi WNW 33.4 mph 49.5 mph N/A   Mostly Cloudy
10:55 AM 60.8 °F 51.8 °F 72% 29.50 in 6.2 mi WNW 32.2 mph 43.7 mph N/A Rain Light Rain Showers
11:00 AM 60 °F 52 °F 69% 29.52 in 9 mi West 29.9 mph - - Rain Light Rain Showers
11:55 AM 62.6 °F 51.8 °F 68% 29.50 in 6.2 mi WNW 33.4 mph 44.9 mph N/A Rain Light Rain Showers
12:18 PM 62.6 °F 53.6 °F 72% 29.50 in 6.2 mi WNW 33.4 mph 44.9 mph N/A   Mostly Cloudy
12:55 PM 62.6 °F 53.6 °F 72% 29.50 in 6.2 mi WNW 32.2 mph 43.7 mph N/A Rain Light Rain Showers
1:22 PM 62.6 °F 53.6 °F 72% 29.47 in 6.2 mi WNW 35.7 mph 48.3 mph N/A   Mostly Cloudy
1:55 PM 62.6 °F 53.6 °F 72% 29.47 in 6.2 mi WNW 34.5 mph 47.2 mph N/A   Mostly Cloudy
2:00 PM 63 °F 53 °F 62% 29.49 in 9 mi West 32.2 mph - - Rain Light Rain Showers
2:42 PM 62.6 °F 53.6 °F 72% 29.47 in - WNW 32.2 mph 49.5 mph N/A Rain Rain
2:55 PM 59.0 °F 53.6 °F 82% 29.47 in - WNW 35.7 mph 50.6 mph N/A Rain Rain
3:22 PM 60.8 °F 55.4 °F 82% 29.47 in - WNW 35.7 mph 48.3 mph N/A Rain Rain
3:30 PM 60.8 °F 55.4 °F 82% 29.47 in - WNW 34.5 mph 50.6 mph N/A Rain Light Rain
3:55 PM 60.8 °F 57.2 °F 88% 29.44 in 6.2 mi WNW 35.7 mph 49.5 mph N/A Rain Light Rain
4:55 PM 62.6 °F 57.2 °F 82% 29.47 in 6.2 mi NW 33.4 mph 44.9 mph N/A Rain Light Rain
5:00 PM 63 °F 57 °F 76% 29.49 in 9 mi WNW 29.9 mph - - Rain Light Rain
5:55 PM 64.4 °F 57.2 °F 77% 29.50 in 6.2 mi NW 33.4 mph 44.9 mph N/A   Mostly Cloudy
6:55 PM 64.4 °F 57.2 °F 77% 29.53 in 6.2 mi NW 26.5 mph 39.1 mph N/A   Mostly Cloudy
7:55 PM 64.4 °F 55.4 °F 73% 29.59 in 6.2 mi NW 23.0 mph - N/A   Mostly Cloudy
8:00 PM 64 °F 56 °F 68% 29.60 in 9 mi NW 25.3 mph - -   Partly Cloudy
8:31 PM 62.6 °F 53.6 °F 72% 29.59 in 5.0 mi NNW 23.0 mph - N/A Rain Light Rain Showers
8:55 PM 62.6 °F 55.4 °F 77% 29.62 in 5.6 mi NW 20.7 mph - N/A Rain Light Rain Showers
9:17 PM 60.8 °F 55.4 °F 82% 29.62 in 6.2 mi NNW 15.0 mph - N/A   Mostly Cloudy
9:55 PM 62.6 °F 55.4 °F 77% 29.65 in 6.2 mi NNW 16.1 mph - N/A   Mostly Cloudy
10:55 PM 62.6 °F 53.6 °F 72% 29.65 in 6.2 mi North 15.0 mph - N/A Rain Light Rain Showers
11:00 PM 63 °F 54 °F 64% 29.68 in 9 mi NW 17.3 mph - - Rain Light Rain Showers
11:55 PM 62.6 °F 53.6 °F 72% 29.68 in 6.2 mi NNW 12.7 mph - N/A   Mostly Cloudy